This is the latest recevied weather packets stored in our database for station/object KG2V. If no packets are shown the sender has not sent any weather packets the latest 10 day(s).
| Time | Temp. | Humidity | Pressure | Rain* | Wind** | Luminosity | Snow |
|---|---|---|---|---|---|---|---|
| 1777827040 | 12.22° C | 53% | 1007.9 hPa | 0 mm | - | 502 W/m² | - |
| 1777826737 | 11.67° C | 54% | 1008.1 hPa | 0 mm | - | 528 W/m² | - |
| 1777826434 | 11.11° C | 52% | 1008.1 hPa | 0 mm | - | 893 W/m² | - |
| 1777826131 | 11.11° C | 53% | 1008.2 hPa | 0 mm | - | 299 W/m² | - |
| 1777825828 | 11.67° C | 51% | 1008.2 hPa | 0 mm | - | 636 W/m² | - |
| 1777825525 | 11.11° C | 54% | 1008.1 hPa | 0 mm | - | 212 W/m² | - |
| 1777825223 | 10.56° C | 56% | 1008.3 hPa | 0 mm | - | 296 W/m² | - |
| 1777824920 | 11.11° C | 53% | 1008.5 hPa | 0 mm | - | 262 W/m² | - |
| 1777824616 | 10.56° C | 52% | 1008.5 hPa | 0 mm | - | 267 W/m² | - |
| 1777824313 | 11.67° C | 54% | 1008.4 hPa | 0 mm | - | 241 W/m² | - |
| 1777824009 | 11.67° C | 52% | 1008.5 hPa | 0 mm | - | 481 W/m² | - |
| 1777823705 | 10.56° C | 54% | 1008.7 hPa | 0 mm | - | 246 W/m² | - |
| 1777823402 | 11.67° C | 57% | 1008.8 hPa | 0 mm | - | 189 W/m² | - |
| 1777823100 | 11.67° C | 52% | 1008.7 hPa | 0 mm | - | 738 W/m² | - |
| 1777822797 | 11.11° C | 57% | 1008.8 hPa | 0 mm | - | 130 W/m² | - |
| 1777822495 | 10.56° C | 61% | 1008.6 hPa | 0 mm | - | 668 W/m² | - |
| 1777822192 | 11.11° C | 58% | 1008.7 hPa | 0 mm | - | 143 W/m² | - |
| 1777821890 | 10.56° C | 58% | 1008.8 hPa | 0 mm | - | 310 W/m² | - |
| 1777821587 | 10.56° C | 58% | 1008.9 hPa | 0 mm | - | 350 W/m² | - |
| 1777821285 | 10.56° C | 58% | 1008.8 hPa | 0 mm | - | 360 W/m² | - |
| 1777820982 | 10° C | 57% | 1008.9 hPa | 0 mm | - | 286 W/m² | - |
| 1777820679 | 10° C | 58% | 1008.9 hPa | 0 mm | - | 396 W/m² | - |
| 1777820374 | 10° C | 57% | 1008.8 hPa | 0 mm | - | 368 W/m² | - |
| 1777820072 | 9.44° C | 61% | 1009 hPa | 0 mm | - | 242 W/m² | - |
| 1777819769 | 9.44° C | 63% | 1009 hPa | 0 mm | - | 83 W/m² | - |
* Rain latest hour (hover to see other rain measurements)
** Current wind speed in m/s (hover to see current wind gust speed)